sat.trackr.live / text

‹ back to catalog

STARLINK-34046

NORAD 64035 · 2025-102P

PAYLOAD ACTIVE UNKNOWN

§ Identity

Operator
Country
US
Launch date
2025-05-16
Launch site
AFWTR
Launch vehicle
Mass (kg)
RCS (m²)

Purposes: comms

External: N2YO · Heavens-Above · Gunter

§ Orbital elements

Epoch: 2026-05-24T20:02:32.850816Z

Period
96.11 min
Inclination
70.0004°
Eccentricity
0.0003172
Mean motion
14.98340143 rev/d
Perigee alt
569.8 km
Apogee alt
574.2 km
Semi-major
6,950.2 km
B*
4.9528e-4
RAAN
282.5191°
Arg perigee
267.9349°
Mean anomaly
92.1447°
Rev number
5,713

§ Raw data

STARLINK-340461 64035U 25102P   26144.83510244  .00005823  00000+0  49528-3 0  99902 64035  70.0004 282.5191 0003172 267.9349  92.1447 14.98340143 57132

JSON: /api/v1/satellites/64035 · /tle

For live sub-satellite position, see the globe view (requires WebGL).

§ Visibility from observer

Set your observer location to see the next 7 days of passes ≥ 10°. The values pass through the URL so the page stays shareable.

No JS? Fill the form by hand. The geolocation button needs JavaScript.